Tracking 17739 objects as of 25-June-2016
HD Live streaming from Space Station
objects crossing your sky now

ATLAS CENTAUR R/B

Track ATLAS CENTAUR R/B now!


NORAD ID: 10976
Int'l Code: 1978-068B
Perigee: 648.0 km
Apogee: 36,207.8 km
Inclination: 21.8 °
Period: 647.8 minutes
Semi major axis: 24798 km
RCS: 16.8333 m2 (large)
Launch date: June 29, 1978
Source: United States (US)
Launch site: AIR FORCE EASTERN TEST RANGE (AFETR)

Note: This is a ROCKET BODY
Your satellite tracking list
Your tracking list is empty





NASA's NSSDC Master Catalog

Two Line Element Set (TLE):
1 10976U 78068B   16175.51165824 -.00000152 +00000-0 -16243-2 0  9992
2 10976 021.7902 326.8878 7169626 037.7537 002.2679 02.22307302305103
Source of the keplerian elements: AFSPC

N2YO: 883